[[{"header":{"parameterUnit":"m.s-1","parameterCategory":2,"la1":30.2991,"la2":30.254,"lo1":-89.0895,"lo2":-89.0444,"dy":0.0017,"dx":0.0017,"nx":28,"ny":28,"refTime":"2024-06-30T09:00:00:Z","depth":"0","parameterNumber":2,"parameterNumberName":"U-component_of_CURRENTS"},"data":[0,0,0,0,0,0,0,0,0,0,0,0,0,0,0,0,0,0,0,0,0,0,0,0,0,0,0,0,0,0,0,0,0,0,0,0,0,0,0,0,0,0,0,0,0,0,0,0,0,0,0,0,0,0,0,0,0,0,0.3005,0.3004,0,0.2958,0.2958,0.2957,0.2917,0.2916,0.2916,0.2916,0.2984,0.2986,0.2988,0,0,0,0,0,0,0,0,0,0,0,0,0,0.3078,0.3076,0.3005,0.3004,0.3004,0.2958,0.2957,0.2957,0.2917,0.2916,0.2916,0.2916,0.2983,0.2986,0.2988,0,0,0,0,0,0,0,0,0,0,0,0,0,0.3039,0.3076,0.3005,0.298,0.2977,0.2958,0.2957,0.2956,0.2917,0.2916,0.2916,0.2915,0.2982,0.2986,0.2989,0.3017,0,0,0.2998,0.3,0,0,0,0,0,0,0,0,0.3041,0.3036,0.2984,0.2981,0.2978,0.2944,0.3008,0.2983,0.2917,0.2938,0.2916,0.2915,0.2983,0.2986,0.2974,0.302,0.3023,0.2999,0.3,0.3002,0.3003,0,0,0,0,0,0,0,0.3044,0.3038,0.2985,0.2983,0.298,0.2977,0.2971,0.3003,0.2964,0.2936,0.2933,0.2931,0.2982,0.2971,0.2976,0.3024,0.2998,0.3001,0.3003,0.3004,0.3124,0.3125,0,0,0,0,0,0,0.3052,0.304,0.2986,0.2983,0.3011,0.2976,0.2969,0.2954,0.2961,0.2962,0.2931,0.2929,0.2966,0.2972,0.2978,0.303,0.3002,0.3005,0.3007,0.3123,0.3124,0.3126,0,0,0,0,0,0,0.3053,0.3047,0.2988,0.3013,0.3005,0.2976,0.2959,0.2954,0.2941,0.2957,0.2959,0.2925,0.2966,0.2974,0.3003,0.3032,0.3006,0.3009,0.3121,0.3123,0.3125,0.3124,0,0,0,0,0,0,0.3055,0.3047,0.3037,0.3013,0.3004,0.2964,0.296,0.2953,0.2941,0.2938,0.2953,0.2958,0.2966,0.2998,0.3006,0.3036,0.3012,0.312,0.3122,0.3125,0.3122,0.3125,0.3128,0,0,0,0,0,0.3058,0.3028,0.3036,0.303,0.2991,0.2964,0.2958,0.2936,0.2942,0.2925,0.2946,0.2957,0.302,0.3001,0.3011,0.3042,0.3119,0.3122,0.3124,0.3121,0.3125,0.3128,0,0,0,0,0,0,0.3047,0.3022,0.3029,0.2993,0.2982,0.2957,0.294,0.294,0.294,0.2945,0.2966,0.2973,0.3022,0.3029,0.3008,0.3085,0.3075,0.308,0.307,0.3074,0.3077,0.3065,0.3014,0,0,0,0,0,0.3046,0.3019,0.3007,0.298,0.2977,0.2968,0.2956,0.2946,0.2946,0.2943,0.2958,0.2991,0.3041,0.3051,0.3089,0.3118,0.3131,0.3148,0.3151,0.3154,0.3152,0.3211,0.3219,0.3135,0.3135,0.3135,0,0,0.3036,0.3019,0.3004,0.2978,0.297,0.2959,0.2957,0.2937,0.2935,0.2957,0.2961,0.3009,0.3056,0.3095,0.3117,0.31,0.3179,0.3157,0.3159,0.3156,0.3215,0.3223,0.323,0.3137,0.3137,0.3137,0,0,0.3003,0.2991,0.2965,0.2958,0.2947,0.2945,0.2944,0.2931,0.2929,0.2942,0.2983,0.3033,0.3074,0.3116,0.3147,0.319,0.3207,0.3214,0.3203,0.3261,0.3268,0.3274,0.3271,0.3278,0.3198,0.3198,0.3198,0,0.2999,0.2962,0.2954,0.2936,0.293,0.2944,0.2928,0.2932,0.2931,0.2938,0.2941,0.304,0.3085,0.3157,0.318,0.3197,0.3214,0.3183,0.3263,0.327,0.3277,0.3273,0.328,0.3199,0.3199,0.3199,0.3199,0,0.2956,0.2932,0.2917,0.2906,0.2899,0.2883,0.2898,0.29,0.2915,0.2923,0.2984,0.3044,0.3098,0.3138,0.3176,0.3258,0.3248,0.3273,0.3249,0.3285,0.3278,0.3285,0.3199,0.3199,0.3199,0.3199,0,0,0.2934,0.2895,0.2892,0.2879,0.2881,0.2867,0.288,0.2888,0.2896,0.2926,0.2945,0.3055,0.3091,0.3131,0.3195,0.3249,0.3316,0.3281,0.3284,0.3267,0.3406,0.3238,0.3229,0.3363,0.3365,0.3367,0.337,0,0.2909,0.2864,0.2856,0.2828,0.2809,0.2829,0.2836,0.2852,0.2874,0.2897,0.2977,0.3026,0.3088,0.3127,0.3198,0.3303,0.3341,0.331,0.3383,0.3384,0.3223,0.3235,0.3033,0.3007,0.3377,0.3379,0.338,0,0.2876,0.2846,0.281,0.2782,0.2778,0.2772,0.2785,0.2792,0.2841,0.2858,0.2922,0.2981,0.3085,0.3129,0.3284,0.3265,0.3337,0.3398,0.34,0.325,0.323,0.3039,0.3006,0.2904,0.3391,0.339,0.3389,0,0.286,0.2815,0.2783,0.2774,0.2754,0.2747,0.2748,0.2779,0.2783,0.2839,0.2848,0.2965,0.302,0.3147,0.327,0.3293,0.3413,0.3453,0.3353,0.334,0.3183,0.3151,0.3048,0.355,0.355,0.355,0.355,0,0.2833,0.2804,0.2768,0.2749,0.2718,0.2717,0.2701,0.272,0.2745,0.2746,0.2832,0.2857,0.3037,0.3121,0.3247,0.3292,0.3387,0.334,0.3335,0.317,0.3139,0.3054,0.3028,0.355,0.355,0.355,0.355,0,0.2819,0.2795,0.2751,0.2718,0.2705,0.2687,0.2661,0.2651,0.2676,0.2684,0.27,0.2789,0.2887,0.3021,0.3202,0.3216,0.3183,0.33,0.3053,0.3017,0.279,0.2771,0.26,0.2551,0.3174,0.317,0.3167,0,0.2802,0.2778,0.2733,0.2703,0.2682,0.2648,0.2624,0.2626,0.2612,0.2636,0.2638,0.2712,0.2752,0.2883,0.295,0.3047,0.304,0.2869,0.2876,0.272,0.2701,0.2652,0.2624,0.2668,0.2661,0.2655,0.2651,0,0.2771,0.2762,0.273,0.2672,0.2631,0.2587,0.255,0.2527,0.2528,0.2519,0.2507,0.2531,0.2602,0.2579,0.265,0.2704,0.2657,0.2745,0.268,0.2352,0.22,0.2168,0.2695,0.2598,0.2603,0.2607,0.261,0.2612,0.2749,0.2725,0.2681,0.2622,0.2574,0.2515,0.2451,0.2416,0.2372,0.2296,0.237,0.2297,0.2258,0.2326,0.2346,0.2172,0.2319,0.2105,0.2112,0.2091,0.1971,0.2329,0.2167,0.217,0.2172,0.2174,0.2176,0,0.2691,0.2668,0.2623,0.2533,0.245,0.2453,0.2381,0.229,0.2195,0.2128,0.2076,0.1921,0.1834,0.181,0.1666,0.1558,0.1565,0.1509,0.143,0.146,0.1849,0.1752,0.1373,0.1373,0.1373,0.1373,0.1373,0.1373,0.2655,0.2596,0.257,0.2421,0.2355,0.2201,0.2144,0.2033,0.1945,0.1718,0.1556,0.1532,0.1462,0.1257,0.1087,0.1069,0.1046,0.092,0.105,0.1334,0.1393,0.1448,0.1351,0.0894,0.0894,0.0589,0.0586,0.0584]},{"header":{"parameterUnit":"m.s-1","parameterCategory":2,"la1":30.2991,"la2":30.254,"lo1":-89.0895,"lo2":-89.0444,"dy":0.0017,"dx":0.0017,"nx":28,"ny":28,"refTime":"2024-06-30T09:00:00:Z","depth":"0","parameterNumber":3,"parameterNumberName":"V-component_of_CURRENTS"},"data":[0,0,0,0,0,0,0,0,0,0,0,0,0,0,0,0,0,0,0,0,0,0,0,0,0,0,0,0,0,0,0,0,0,0,0,0,0,0,0,0,0,0,0,0,0,0,0,0,0,0,0,0,0,0,0,0,0,0,0.0795,0.0795,0,0.0861,0.0861,0.0862,0.088,0.088,0.0879,0.0879,0.0919,0.092,0.0921,0,0,0,0,0,0,0,0,0,0,0,0,0,0.0679,0.0681,0.0795,0.0795,0.0796,0.0861,0.0862,0.0862,0.088,0.088,0.0879,0.0879,0.0918,0.092,0.0921,0,0,0,0,0,0,0,0,0,0,0,0,0,0.0735,0.0682,0.0794,0.0813,0.0816,0.0861,0.0862,0.0863,0.088,0.088,0.0879,0.0879,0.0918,0.092,0.0922,0.0944,0,0,0.0928,0.0929,0,0,0,0,0,0,0,0,0.0732,0.0739,0.081,0.0812,0.0815,0.0862,0.0835,0.0889,0.088,0.0855,0.0879,0.0878,0.0898,0.0902,0.0915,0.0946,0.0948,0.0928,0.0929,0.093,0.0931,0,0,0,0,0,0,0,0.0728,0.0736,0.082,0.0811,0.0814,0.0817,0.0824,0.0846,0.0877,0.0857,0.0859,0.0867,0.0899,0.0913,0.0916,0.0949,0.0928,0.093,0.0931,0.0932,0.0978,0.0978,0,0,0,0,0,0,0.0722,0.0733,0.0818,0.0822,0.0772,0.082,0.0828,0.0847,0.0878,0.0883,0.0868,0.0868,0.0909,0.0913,0.0917,0.0963,0.093,0.0932,0.0933,0.0978,0.0978,0.0978,0,0,0,0,0,0,0.072,0.073,0.0815,0.0779,0.079,0.0822,0.0844,0.0849,0.0861,0.0886,0.089,0.0875,0.0909,0.0914,0.0938,0.0964,0.0933,0.0935,0.0978,0.0978,0.0978,0.1043,0,0,0,0,0,0,0.0716,0.0729,0.0735,0.0779,0.0792,0.0844,0.0844,0.085,0.0868,0.0869,0.0894,0.0897,0.0909,0.0935,0.094,0.0966,0.0937,0.0978,0.0978,0.0978,0.1041,0.1046,0.1049,0,0,0,0,0,0.0712,0.0715,0.0735,0.0745,0.0802,0.0844,0.0851,0.0871,0.0868,0.0879,0.0894,0.0897,0.0938,0.0937,0.0943,0.097,0.0978,0.0978,0.0978,0.1039,0.1045,0.1049,0,0,0,0,0,0,0.0655,0.0719,0.0741,0.0761,0.0804,0.0847,0.0852,0.0871,0.0893,0.0888,0.0907,0.0912,0.0943,0.0938,0.0936,0.0978,0.0954,0.0956,0.0999,0.1004,0.1008,0.1003,0.0938,0,0,0,0,0,0.0651,0.0676,0.0738,0.0751,0.0773,0.0815,0.0831,0.0853,0.088,0.0889,0.0912,0.0925,0.0948,0.096,0.0976,0.1004,0.0993,0.1018,0.1022,0.1026,0.1023,0.1032,0.1038,0.0978,0.0978,0.0978,0,0,0.063,0.0668,0.068,0.0742,0.0772,0.0813,0.0823,0.0851,0.0882,0.0889,0.0927,0.0945,0.0957,0.0993,0.1004,0.0993,0.1036,0.1026,0.103,0.1024,0.1033,0.1039,0.1044,0.0978,0.0978,0.0978,0,0,0.0607,0.064,0.0662,0.0704,0.076,0.0796,0.0806,0.0862,0.0882,0.0925,0.0938,0.097,0.1001,0.1026,0.1038,0.1069,0.1059,0.1067,0.1091,0.1101,0.1107,0.1111,0.1106,0.111,0.1069,0.1069,0.1069,0,0.058,0.0626,0.067,0.0709,0.0743,0.0791,0.0828,0.086,0.0916,0.0935,0.0937,0.1002,0.102,0.1067,0.1082,0.1083,0.1075,0.1081,0.1109,0.1113,0.1117,0.111,0.1114,0.1072,0.1072,0.1071,0.1071,0,0.0591,0.0628,0.0641,0.0717,0.0756,0.0791,0.0855,0.089,0.0921,0.0958,0.101,0.1045,0.108,0.1097,0.1105,0.1144,0.1126,0.1118,0.1104,0.1127,0.1118,0.1121,0.1076,0.1075,0.1074,0.1074,0,0,0.0538,0.0632,0.0639,0.0677,0.0767,0.0799,0.0854,0.0922,0.0953,0.1007,0.1053,0.1107,0.1125,0.1138,0.1159,0.1176,0.1208,0.1161,0.116,0.1167,0.1217,0.1185,0.1183,0.1208,0.1208,0.1209,0.1202,0,0.0539,0.0601,0.0657,0.0718,0.0759,0.0826,0.0875,0.0936,0.0987,0.1042,0.1086,0.1132,0.114,0.1166,0.1188,0.1211,0.1215,0.1209,0.1182,0.1181,0.1159,0.1186,0.1183,0.1174,0.1204,0.1204,0.1204,0,0.0546,0.0588,0.0643,0.073,0.0754,0.0794,0.088,0.0932,0.1015,0.1054,0.111,0.1147,0.1205,0.1196,0.1236,0.1232,0.1222,0.1228,0.1227,0.1174,0.1152,0.1152,0.1177,0.1158,0.1207,0.1207,0.1207,0,0.0496,0.0582,0.0622,0.0654,0.0755,0.0784,0.0838,0.0925,0.0973,0.1059,0.1101,0.1166,0.1207,0.1218,0.124,0.1238,0.1266,0.1261,0.1215,0.1212,0.119,0.1184,0.1202,0.1261,0.1261,0.1261,0.1261,0,0.0489,0.052,0.0595,0.0619,0.0665,0.0745,0.0803,0.0867,0.0957,0.1022,0.1095,0.1155,0.1214,0.1246,0.1246,0.1242,0.1265,0.1221,0.1212,0.1211,0.1207,0.1172,0.1176,0.1261,0.1261,0.1261,0.1261,0,0.0442,0.0493,0.0537,0.062,0.0646,0.0674,0.078,0.083,0.0911,0.1001,0.103,0.1148,0.1198,0.1231,0.1259,0.1247,0.1244,0.1222,0.1211,0.1201,0.1139,0.1147,0.1132,0.1192,0.118,0.1179,0.1179,0,0.0426,0.0443,0.0516,0.0545,0.0583,0.0639,0.0694,0.0792,0.0857,0.0997,0.1043,0.1123,0.1198,0.1228,0.1225,0.1211,0.1211,0.1173,0.1168,0.1137,0.114,0.113,0.1184,0.1166,0.1165,0.1165,0.1164,0,0.0396,0.0416,0.0456,0.0513,0.0562,0.063,0.0711,0.0751,0.0881,0.0953,0.1066,0.1133,0.1188,0.1202,0.1181,0.1174,0.1186,0.1158,0.1142,0.1143,0.1119,0.1173,0.1158,0.1159,0.116,0.116,0.116,0.116,0.0367,0.0385,0.0441,0.0497,0.0558,0.064,0.068,0.0774,0.0866,0.0988,0.1052,0.1137,0.116,0.1154,0.1141,0.1097,0.1141,0.1079,0.1094,0.1087,0.114,0.11,0.108,0.108,0.108,0.108,0.108,0,0.0346,0.0389,0.0438,0.0514,0.0578,0.062,0.0716,0.0757,0.0848,0.0958,0.1041,0.1085,0.1087,0.108,0.1032,0.1026,0.1074,0.1029,0.1032,0.1099,0.107,0.1062,0.1019,0.1019,0.1019,0.1019,0.1019,0.1019,0.0345,0.039,0.043,0.0529,0.0581,0.0645,0.0691,0.0748,0.0822,0.0906,0.0953,0.1018,0.106,0.0951,0.0936,0.0957,0.1027,0.0989,0.1058,0.1027,0.1033,0.1039,0.1032,0.0982,0.0982,0.11,0.1101,0.1101]}],[{"header":{"parameterUnit":"m.s-1","parameterCategory":2,"la1":30.2991,"la2":30.254,"lo1":-89.0895,"lo2":-89.0444,"dy":0.0017,"dx":0.0017,"nx":28,"ny":28,"refTime":"2024-06-30T09:00:00:Z","depth":"2","parameterNumber":2,"parameterNumberName":"U-component_of_CURRENTS"},"data":[0,0,0,0,0,0,0,0,0,0,0,0,0,0,0,0,0,0,0,0,0,0,0,0,0,0,0,0,0,0,0,0,0,0,0,0,0,0,0,0,0,0,0,0,0,0,0,0,0,0,0,0,0,0,0,0,0,0,0.1606,0.1611,0,0.1947,0.195,0.1952,0.2078,0.2078,0.2079,0.2079,0.2128,0.2129,0.213,0,0,0,0,0,0,0,0,0,0,0,0,0,0.1519,0.1515,0.1606,0.1612,0.1617,0.1947,0.195,0.1953,0.2078,0.2078,0.2079,0.2079,0.2128,0.2129,0.213,0,0,0,0,0,0,0,0,0,0,0,0,0,0.166,0.1514,0.1605,0.1732,0.1748,0.1946,0.195,0.1954,0.2078,0.2078,0.2079,0.2079,0.2128,0.2129,0.2131,0.2126,0,0,0.2135,0.2135,0,0,0,0,0,0,0,0,0.1651,0.1661,0.1707,0.1724,0.1742,0.1985,0.1939,0.2003,0.2077,0.1934,0.2079,0.208,0.2064,0.2071,0.2114,0.2129,0.2131,0.2135,0.2136,0.2136,0.2137,0,0,0,0,0,0,0,0.1641,0.165,0.1724,0.1714,0.1735,0.193,0.1944,0.1954,0.1973,0.1947,0.1961,0.2026,0.2069,0.2112,0.2115,0.2131,0.2135,0.2136,0.2137,0.2137,0.2175,0.2175,0,0,0,0,0,0,0.1607,0.1637,0.1713,0.1736,0.1717,0.193,0.1946,0.1893,0.198,0.2001,0.2025,0.2031,0.2109,0.2113,0.2117,0.2117,0.2136,0.2138,0.2138,0.2174,0.2175,0.2175,0,0,0,0,0,0,0.1602,0.1605,0.17,0.1717,0.1744,0.1929,0.187,0.19,0.2009,0.2046,0.2057,0.2114,0.211,0.2115,0.2153,0.212,0.2138,0.2139,0.2174,0.2175,0.2175,0.2116,0,0,0,0,0,0,0.1595,0.1598,0.1597,0.1709,0.1742,0.178,0.1873,0.1906,0.2053,0.2064,0.2124,0.2127,0.2111,0.2152,0.2155,0.2122,0.2141,0.2174,0.2174,0.2175,0.2118,0.2114,0.2111,0,0,0,0,0,0.1589,0.1596,0.1591,0.1607,0.1711,0.1781,0.1812,0.1943,0.2057,0.2055,0.2136,0.2128,0.2155,0.2154,0.2157,0.2124,0.2174,0.2174,0.2175,0.2119,0.2115,0.2111,0,0,0,0,0,0,0.159,0.1614,0.1611,0.1627,0.1675,0.1808,0.1886,0.1984,0.2063,0.2099,0.2145,0.2149,0.2159,0.217,0.2169,0.2138,0.2157,0.2158,0.2114,0.211,0.2107,0.2069,0.2142,0,0,0,0,0,0.1574,0.158,0.1603,0.1639,0.1639,0.1771,0.1854,0.1916,0.2003,0.2048,0.21,0.2148,0.2156,0.2162,0.2161,0.2163,0.2164,0.2142,0.2139,0.2136,0.211,0.2113,0.2107,0.2176,0.2176,0.2176,0,0,0.1608,0.163,0.1642,0.1644,0.1702,0.1675,0.1815,0.1912,0.1936,0.2032,0.2097,0.2141,0.216,0.2141,0.2146,0.2151,0.2118,0.2136,0.2133,0.2108,0.2112,0.2105,0.2099,0.2176,0.2176,0.2176,0,0,0.1657,0.1647,0.1633,0.1625,0.1688,0.1714,0.1741,0.1839,0.1911,0.1977,0.2041,0.2077,0.2129,0.2102,0.2107,0.2095,0.2105,0.211,0.2053,0.2058,0.2051,0.2045,0.2037,0.2031,0.2103,0.2103,0.2103,0,0.1678,0.1642,0.1659,0.1614,0.1631,0.171,0.1672,0.1731,0.1855,0.1913,0.1974,0.2081,0.2091,0.2069,0.2053,0.2078,0.2096,0.2063,0.205,0.2045,0.204,0.2032,0.2026,0.21,0.21,0.21,0.2101,0,0.1658,0.1638,0.1641,0.155,0.1549,0.1558,0.1563,0.1598,0.1722,0.181,0.1886,0.1932,0.2012,0.1993,0.2019,0.1985,0.2014,0.2048,0.2052,0.2028,0.2023,0.2018,0.2096,0.2097,0.2098,0.2098,0,0,0.1631,0.1617,0.1609,0.1579,0.1517,0.1517,0.1489,0.1503,0.1552,0.1663,0.1752,0.1769,0.1893,0.1904,0.1949,0.1911,0.1886,0.1964,0.1966,0.194,0.19,0.1787,0.1771,0.1938,0.1937,0.1936,0.1909,0,0.1591,0.1536,0.1519,0.1459,0.141,0.1402,0.1378,0.1411,0.1489,0.1574,0.1676,0.1782,0.1838,0.1913,0.189,0.1896,0.1872,0.189,0.1939,0.1939,0.1829,0.176,0.1633,0.1587,0.1904,0.1903,0.1903,0,0.1517,0.1508,0.1456,0.1427,0.1396,0.1373,0.1342,0.1341,0.1418,0.1503,0.1616,0.1754,0.1787,0.1847,0.1841,0.1869,0.1885,0.1859,0.186,0.1763,0.1815,0.1664,0.1565,0.1894,0.1895,0.1895,0.1896,0,0.15,0.1446,0.1438,0.1411,0.1366,0.1375,0.1357,0.1368,0.1397,0.1512,0.1572,0.168,0.1769,0.1792,0.1845,0.1862,0.1801,0.1835,0.1732,0.1726,0.1623,0.1608,0.1805,0.1805,0.1805,0.1806,0.1806,0,0.143,0.1426,0.1464,0.1452,0.146,0.1411,0.1425,0.142,0.1446,0.1507,0.1608,0.1665,0.1761,0.1798,0.1821,0.1758,0.1824,0.168,0.1693,0.1599,0.1583,0.1863,0.187,0.1805,0.1805,0.1805,0.1805,0,0.1391,0.1425,0.1416,0.1426,0.147,0.1467,0.1486,0.1481,0.1492,0.1559,0.1629,0.1673,0.1699,0.1745,0.1747,0.171,0.167,0.1643,0.1516,0.1509,0.1593,0.1598,0.1487,0.1482,0.1478,0.1475,0.1472,0,0.1376,0.138,0.1427,0.1474,0.1509,0.1539,0.1569,0.1554,0.1549,0.1574,0.161,0.1653,0.1653,0.1554,0.1479,0.143,0.1591,0.132,0.1287,0.1527,0.1552,0.1564,0.1573,0.1147,0.1142,0.1138,0.1134,0,0.1344,0.1377,0.1394,0.1469,0.1542,0.1556,0.1608,0.1596,0.1592,0.1621,0.162,0.1603,0.1459,0.1298,0.1193,0.1166,0.1307,0.1225,0.1519,0.1233,0.12,0.1228,0.125,0.1097,0.11,0.1103,0.1105,0.1107,0.1369,0.1361,0.1409,0.149,0.1548,0.1562,0.1555,0.1551,0.1542,0.1514,0.1567,0.1448,0.1291,0.0987,0.0943,0.0907,0.0954,0.0973,0.099,0.101,0.0961,0.092,0.0756,0.0757,0.0759,0.076,0.0761,0,0.1359,0.1395,0.144,0.151,0.152,0.1573,0.1577,0.1497,0.1462,0.1429,0.1404,0.1146,0.0934,0.0853,0.0662,0.057,0.0597,0.0638,0.0707,0.0739,0.077,0.0714,0.0441,0.0441,0.0441,0.0441,0,0,0.1372,0.1375,0.1397,0.1475,0.1548,0.1525,0.151,0.1381,0.1286,0.1136,0.106,0.0977,0.0835,0.0675,0.0577,0.0523,0.0666,0.0506,0.0747,0.0865,0.0898,0.0919,0.0862,0,0,0,0,0]},{"header":{"parameterUnit":"m.s-1","parameterCategory":2,"la1":30.2991,"la2":30.254,"lo1":-89.0895,"lo2":-89.0444,"dy":0.0017,"dx":0.0017,"nx":28,"ny":28,"refTime":"2024-06-30T09:00:00:Z","depth":"2","parameterNumber":3,"parameterNumberName":"V-component_of_CURRENTS"},"data":[0,0,0,0,0,0,0,0,0,0,0,0,0,0,0,0,0,0,0,0,0,0,0,0,0,0,0,0,0,0,0,0,0,0,0,0,0,0,0,0,0,0,0,0,0,0,0,0,0,0,0,0,0,0,0,0,0,0,-0.0052,-0.0048,0,0.0187,0.0189,0.0191,0.0277,0.0277,0.0277,0.0277,0.024,0.0239,0.0238,0,0,0,0,0,0,0,0,0,0,0,0,0,-0.0209,-0.0209,-0.0052,-0.0048,-0.0044,0.0186,0.0189,0.0191,0.0277,0.0277,0.0277,0.0277,0.024,0.0239,0.0238,0,0,0,0,0,0,0,0,0,0,0,0,0,-0.0082,-0.0209,-0.0053,0.0033,0.0043,0.0186,0.0189,0.0192,0.0277,0.0277,0.0277,0.0277,0.0241,0.0239,0.0238,0.0229,0,0,0.0233,0.0233,0,0,0,0,0,0,0,0,-0.009,-0.0078,0.0016,0.0027,0.0039,0.021,0.0121,0.0194,0.0277,0.0178,0.0277,0.0277,0.021,0.0211,0.0247,0.0228,0.0226,0.0233,0.0232,0.0232,0.0231,0,0,0,0,0,0,0,-0.0099,-0.0086,0.0033,0.0021,0.0035,0.0137,0.0152,0.0137,0.0179,0.0187,0.0196,0.0237,0.0213,0.0249,0.0246,0.0226,0.0233,0.0232,0.0231,0.0231,0.0206,0.0206,0,0,0,0,0,0,-0.0122,-0.0096,0.0026,0.0041,-0.0016,0.0139,0.0156,0.0148,0.0186,0.0197,0.0237,0.024,0.0251,0.0248,0.0245,0.0243,0.0232,0.0231,0.023,0.0206,0.0206,0.0206,0,0,0,0,0,0,-0.0127,-0.0116,0.0017,-0.0011,0.0014,0.0141,0.0133,0.0153,0.0223,0.0229,0.0232,0.0291,0.0251,0.0247,0.0255,0.0241,0.023,0.0229,0.0206,0.0206,0.0206,0.0232,0,0,0,0,0,0,-0.0134,-0.012,-0.0115,-0.0015,0.0015,0.0095,0.0134,0.0158,0.025,0.0258,0.0275,0.027,0.0251,0.0257,0.0253,0.0239,0.0227,0.0205,0.0206,0.0206,0.0231,0.0233,0.0235,0,0,0,0,0,-0.0141,-0.0129,-0.0119,-0.0101,0.0008,0.0097,0.012,0.0207,0.0253,0.0272,0.0297,0.0272,0.0256,0.0257,0.0252,0.0237,0.0205,0.0206,0.0206,0.023,0.0233,0.0235,0,0,0,0,0,0,-0.0184,-0.0115,-0.0102,-0.0069,0.0002,0.0114,0.0162,0.0228,0.0274,0.0282,0.0286,0.0282,0.0275,0.0262,0.0264,0.0231,0.0221,0.0221,0.0241,0.0243,0.0245,0.0251,0.0226,0,0,0,0,0,-0.0197,-0.0168,-0.0099,-0.0061,-0.0042,0.0064,0.0124,0.0179,0.0238,0.0264,0.0284,0.0286,0.0271,0.0266,0.0248,0.0242,0.0233,0.0226,0.0228,0.023,0.0232,0.0203,0.0202,0.0208,0.0208,0.0208,0,0,-0.0188,-0.0147,-0.0124,-0.0065,-0.0008,0.0036,0.0096,0.0181,0.0233,0.0243,0.0303,0.0294,0.0272,0.026,0.0254,0.025,0.0229,0.0231,0.0232,0.0233,0.0203,0.0203,0.0202,0.0208,0.0208,0.0208,0,0,-0.0157,-0.0147,-0.0121,-0.0082,0.0002,0.0054,0.008,0.0181,0.0226,0.0283,0.029,0.0287,0.0294,0.0268,0.0256,0.0261,0.024,0.0252,0.0268,0.024,0.0239,0.0238,0.0251,0.0251,0.0254,0.0254,0.0254,0,-0.0165,-0.0124,-0.0091,-0.0066,-0.0017,0.0056,0.0096,0.0148,0.0253,0.0289,0.0294,0.0324,0.0292,0.0281,0.0272,0.0262,0.0263,0.026,0.0242,0.0241,0.0239,0.0253,0.0252,0.0256,0.0256,0.0255,0.0255,0,-0.0116,-0.009,-0.0071,-0.0033,0.0016,0.0067,0.0123,0.0175,0.0241,0.0303,0.0333,0.0312,0.034,0.0305,0.0286,0.0261,0.0273,0.0246,0.0235,0.024,0.0255,0.0254,0.0258,0.0257,0.0257,0.0256,0,0,-0.0152,-0.0061,-0.0059,-0.0025,0.0036,0.0088,0.0137,0.0212,0.0275,0.0323,0.0397,0.0348,0.0376,0.0362,0.0337,0.0287,0.0268,0.0264,0.0262,0.0279,0.0242,0.0301,0.0305,0.024,0.0239,0.0239,0.0266,0,-0.0137,-0.0072,-0.0029,0.0043,0.0075,0.0129,0.0181,0.0257,0.0317,0.0393,0.0383,0.0425,0.0389,0.0402,0.0357,0.0292,0.0263,0.0265,0.0234,0.0234,0.0285,0.0304,0.0226,0.0248,0.0265,0.0265,0.0265,0,-0.0123,-0.0073,-0.0008,0.0093,0.0108,0.0157,0.0256,0.0314,0.0398,0.0447,0.0493,0.0519,0.05,0.0449,0.0375,0.0386,0.0323,0.0256,0.0255,0.0298,0.029,0.024,0.0245,0.0263,0.0263,0.0263,0.0264,0,-0.014,-0.006,0.0006,0.0032,0.0139,0.0184,0.0244,0.0333,0.0392,0.0486,0.0545,0.0562,0.0578,0.05,0.0425,0.0399,0.033,0.0283,0.0281,0.0287,0.0208,0.0208,0.0212,0.0212,0.0212,0.0212,0.0212,0,-0.0142,-0.0093,0.0005,0.004,0.0121,0.019,0.0276,0.0345,0.0437,0.0522,0.0579,0.0638,0.0581,0.0568,0.0468,0.041,0.0387,0.0298,0.0294,0.022,0.0221,0.0214,0.0214,0.0213,0.0213,0.0212,0.0212,0,-0.017,-0.0105,-0.0031,0.0079,0.0118,0.0171,0.0288,0.0356,0.0444,0.0551,0.0591,0.0691,0.0693,0.0645,0.053,0.0483,0.0393,0.0366,0.032,0.031,0.0359,0.036,0.0379,0.0382,0.0383,0.0385,0.0386,0,-0.0167,-0.0131,-0.002,0.0033,0.0084,0.0169,0.024,0.0344,0.0417,0.0582,0.0639,0.0712,0.077,0.0695,0.0579,0.048,0.0449,0.0384,0.0305,0.0381,0.0374,0.0372,0.037,0.0214,0.0214,0.0213,0.0213,0,-0.0166,-0.0134,-0.0068,0.0028,0.0108,0.0194,0.0301,0.0354,0.0495,0.0598,0.0736,0.0794,0.0762,0.0654,0.0567,0.0484,0.0404,0.0383,0.0448,0.0204,0.0231,0.0223,0.0225,0.0212,0.0212,0.0212,0.0212,0.0212,-0.0166,-0.0129,-0.004,0.0052,0.0145,0.0248,0.0307,0.042,0.0545,0.0701,0.0752,0.081,0.0699,0.0554,0.048,0.0415,0.04,0.0335,0.0331,0.0328,0.0324,0.0355,0.036,0.0361,0.0362,0.0363,0.0363,0,-0.0157,-0.0096,-0.0007,0.0119,0.0222,0.0264,0.0382,0.0439,0.0577,0.0681,0.0778,0.0668,0.0579,0.0493,0.0351,0.0299,0.0256,0.0318,0.0222,0.0222,0.0222,0.021,0.0218,0.0218,0.0218,0.0219,0,0,-0.0132,-0.0056,0.0002,0.0182,0.0271,0.0374,0.0433,0.0505,0.0568,0.0654,0.0673,0.0671,0.0549,0.0424,0.0324,0.0269,0.0281,0.0281,0.0386,0.028,0.0283,0.0204,0.0183,0,0,0,0,0]}],[{"header":{"parameterUnit":"m.s-1","parameterCategory":2,"la1":30.2991,"la2":30.254,"lo1":-89.0895,"lo2":-89.0444,"dy":0.0017,"dx":0.0017,"nx":28,"ny":28,"refTime":"2024-06-30T09:00:00:Z","depth":"4","parameterNumber":2,"parameterNumberName":"U-component_of_CURRENTS"},"data":[0,0,0,0,0,0,0,0,0,0,0,0,0,0,0,0,0,0,0,0,0,0,0,0,0,0,0,0,0,0,0,0,0,0,0,0,0,0,0,0,0,0,0,0,0,0,0,0,0,0,0,0,0,0,0,0,0,0,-0.0504,-0.0504,0,-0.0579,-0.058,-0.0581,-0.0667,-0.0668,-0.0669,-0.067,-0.0786,-0.0788,-0.079,0,0,0,0,0,0,0,0,0,0,0,0,0,-0.0464,-0.0464,-0.0503,-0.0504,-0.0505,-0.0579,-0.058,-0.0581,-0.0667,-0.0668,-0.067,-0.0671,-0.0785,-0.0788,-0.079,0,0,0,0,0,0,0,0,0,0,0,0,0,-0.0507,-0.0464,-0.0503,-0.0555,-0.056,-0.0578,-0.058,-0.0582,-0.0667,-0.0668,-0.067,-0.0672,-0.0784,-0.0787,-0.0791,-0.0779,0,0,-0.08,-0.0802,0,0,0,0,0,0,0,0,-0.0504,-0.0508,-0.0546,-0.0551,-0.0557,-0.0613,-0.0608,-0.0649,-0.0667,-0.0629,-0.067,-0.0672,-0.0729,-0.0737,-0.0751,-0.0784,-0.0789,-0.08,-0.0802,-0.0804,-0.0805,0,0,0,0,0,0,0,-0.0501,-0.0506,-0.0536,-0.0547,-0.0553,-0.0584,-0.0592,-0.0616,-0.0672,-0.0633,-0.0638,-0.0642,-0.0733,-0.0747,-0.0754,-0.0791,-0.08,-0.0803,-0.0805,-0.0806,-0.0909,-0.091,0,0,0,0,0,0,-0.0483,-0.0502,-0.0534,-0.0538,-0.0531,-0.0583,-0.0592,-0.0596,-0.0671,-0.0683,-0.064,-0.0645,-0.0741,-0.075,-0.0758,-0.0773,-0.0804,-0.0807,-0.0808,-0.0908,-0.0909,-0.091,0,0,0,0,0,0,-0.0482,-0.0485,-0.0531,-0.052,-0.0528,-0.0581,-0.0585,-0.0596,-0.0639,-0.0676,-0.069,-0.0675,-0.0743,-0.0754,-0.0812,-0.0777,-0.0808,-0.0811,-0.0907,-0.0909,-0.091,-0.0786,0,0,0,0,0,0,-0.048,-0.0484,-0.0502,-0.0519,-0.0528,-0.0565,-0.0584,-0.0596,-0.0636,-0.0644,-0.071,-0.0721,-0.0745,-0.0807,-0.0815,-0.0782,-0.0813,-0.0906,-0.0908,-0.0909,-0.0789,-0.0783,-0.0777,0,0,0,0,0,-0.0478,-0.049,-0.0502,-0.0507,-0.0544,-0.0565,-0.0574,-0.0619,-0.0636,-0.0662,-0.0708,-0.072,-0.0823,-0.0811,-0.082,-0.0786,-0.0905,-0.0907,-0.0909,-0.0791,-0.0784,-0.0778,0,0,0,0,0,0,-0.0489,-0.05,-0.0514,-0.0532,-0.0557,-0.058,-0.0613,-0.0628,-0.0682,-0.0688,-0.0733,-0.0748,-0.0783,-0.082,-0.0805,-0.0829,-0.0865,-0.0868,-0.0772,-0.0765,-0.076,-0.0712,-0.0816,0,0,0,0,0,-0.0494,-0.0514,-0.0522,-0.0547,-0.0557,-0.0586,-0.0607,-0.0618,-0.0654,-0.0681,-0.0709,-0.0752,-0.0791,-0.081,-0.0849,-0.086,-0.0888,-0.085,-0.0844,-0.0838,-0.0811,-0.0843,-0.0835,-0.0916,-0.0916,-0.0916,0,0,-0.0507,-0.0518,-0.0531,-0.0553,-0.0579,-0.0571,-0.0606,-0.0625,-0.0616,-0.0681,-0.0694,-0.0735,-0.0797,-0.0809,-0.0826,-0.0836,-0.0834,-0.0841,-0.0835,-0.081,-0.0843,-0.0835,-0.0827,-0.0918,-0.0917,-0.0917,0,0,-0.0524,-0.0551,-0.0563,-0.0565,-0.0582,-0.0586,-0.0591,-0.0598,-0.0616,-0.0619,-0.0668,-0.0703,-0.074,-0.0775,-0.0801,-0.0797,-0.081,-0.08,-0.0714,-0.0745,-0.0737,-0.073,-0.0756,-0.0753,-0.0787,-0.0786,-0.0786,0,-0.0541,-0.0536,-0.0574,-0.0564,-0.0551,-0.0587,-0.056,-0.0581,-0.0599,-0.0598,-0.0614,-0.0667,-0.0722,-0.0746,-0.0729,-0.0777,-0.0785,-0.0724,-0.0731,-0.0725,-0.072,-0.0749,-0.0746,-0.0781,-0.0781,-0.0782,-0.0783,0,-0.0539,-0.0531,-0.0538,-0.0528,-0.0529,-0.0513,-0.0513,-0.0514,-0.0516,-0.0518,-0.0534,-0.0596,-0.0614,-0.0643,-0.0671,-0.0661,-0.0675,-0.0722,-0.0731,-0.0703,-0.0737,-0.0736,-0.0773,-0.0775,-0.0776,-0.0778,0,0,-0.0562,-0.0538,-0.054,-0.0506,-0.0486,-0.0479,-0.0461,-0.0448,-0.0437,-0.0444,-0.043,-0.0475,-0.0479,-0.051,-0.0556,-0.0577,-0.0555,-0.0599,-0.0604,-0.0592,-0.0594,-0.0553,-0.055,-0.0577,-0.0576,-0.0576,-0.063,0,-0.0542,-0.0506,-0.0491,-0.0436,-0.0401,-0.039,-0.0369,-0.036,-0.0367,-0.0367,-0.0416,-0.0423,-0.0441,-0.0431,-0.0447,-0.0548,-0.0546,-0.0534,-0.065,-0.0654,-0.0594,-0.0546,-0.0574,-0.063,-0.063,-0.063,-0.063,0,-0.0527,-0.0493,-0.043,-0.0355,-0.0341,-0.0298,-0.0254,-0.0237,-0.0254,-0.0253,-0.025,-0.0292,-0.0314,-0.0342,-0.0425,-0.0402,-0.0453,-0.053,-0.0535,-0.0531,-0.0611,-0.067,-0.063,-0.063,-0.063,-0.063,-0.063,0,-0.0515,-0.0445,-0.0387,-0.0356,-0.0284,-0.0234,-0.0198,-0.0188,-0.0193,-0.0169,-0.0187,-0.0196,-0.0243,-0.0278,-0.042,-0.0388,-0.0553,-0.0551,-0.0563,-0.0563,-0.0638,-0.0645,-0.0578,-0.0578,-0.0578,-0.0578,-0.0578,0,-0.0481,-0.0441,-0.0362,-0.032,-0.024,-0.0185,-0.0127,-0.01,-0.0095,-0.015,-0.0112,-0.0185,-0.0224,-0.0342,-0.0402,-0.0495,-0.0534,-0.0517,-0.0559,-0.059,-0.0591,-0.0639,-0.0645,-0.058,-0.058,-0.0579,-0.0579,0,-0.0498,-0.0449,-0.0373,-0.0267,-0.0228,-0.0168,-0.0101,-0.0099,-0.006,-0.0136,-0.0126,-0.0185,-0.0265,-0.0354,-0.0481,-0.0504,-0.0592,-0.0625,-0.0665,-0.0715,-0.0565,-0.0565,-0.0548,-0.0546,-0.0545,-0.0544,-0.0544,0,-0.0509,-0.0462,-0.0355,-0.0322,-0.0265,-0.0177,-0.0153,-0.0083,-0.0133,-0.0195,-0.0284,-0.0315,-0.0368,-0.0468,-0.0551,-0.0596,-0.0614,-0.0645,-0.0534,-0.0511,-0.0555,-0.0557,-0.0558,-0.0542,-0.0542,-0.0541,-0.0541,0,-0.0516,-0.0483,-0.0438,-0.0366,-0.031,-0.0271,-0.0248,-0.0242,-0.0248,-0.027,-0.0335,-0.0328,-0.0431,-0.0443,-0.0491,-0.0559,-0.0598,-0.0631,-0.0631,-0.0527,-0.0505,-0.0549,-0.0552,-0.0537,-0.0538,-0.0538,-0.0538,0,-0.0547,-0.053,-0.0478,-0.0407,-0.0374,-0.0349,-0.0303,-0.032,-0.03,-0.035,-0.0416,-0.043,-0.0468,-0.0439,-0.054,-0.0522,-0.0462,-0.0441,-0.0449,-0.0454,-0.04,-0.0356,-0.035,0,0,0,0,0,-0.0555,-0.0549,-0.0523,-0.0432,-0.0418,-0.0385,-0.0395,-0.0372,-0.0391,-0.0411,-0.0367,-0.0431,-0.0409,-0.0439,-0.0387,-0.0524,-0.0503,-0.0471,-0.0492,-0.0515,-0.052,-0.0466,0,0,0,0,0,0,-0.0556,-0.0565,-0.0537,-0.0483,-0.043,-0.0408,-0.0391,-0.04,-0.0388,-0.0403,-0.0368,-0.0408,-0.0381,-0.0403,-0.0374,-0.0387,-0.0391,-0.0487,-0.0486,-0.0513,-0.0517,-0.052,-0.0467,0,0,0,0,0]},{"header":{"parameterUnit":"m.s-1","parameterCategory":2,"la1":30.2991,"la2":30.254,"lo1":-89.0895,"lo2":-89.0444,"dy":0.0017,"dx":0.0017,"nx":28,"ny":28,"refTime":"2024-06-30T09:00:00:Z","depth":"4","parameterNumber":3,"parameterNumberName":"V-component_of_CURRENTS"},"data":[0,0,0,0,0,0,0,0,0,0,0,0,0,0,0,0,0,0,0,0,0,0,0,0,0,0,0,0,0,0,0,0,0,0,0,0,0,0,0,0,0,0,0,0,0,0,0,0,0,0,0,0,0,0,0,0,0,0,0.0403,0.0403,0,0.0443,0.0444,0.0445,0.0539,0.054,0.0542,0.0543,0.0642,0.0643,0.0644,0,0,0,0,0,0,0,0,0,0,0,0,0,0.0373,0.0374,0.0403,0.0403,0.0403,0.0443,0.0444,0.0445,0.0538,0.054,0.0542,0.0544,0.0642,0.0643,0.0644,0,0,0,0,0,0,0,0,0,0,0,0,0,0.0401,0.0374,0.0403,0.0451,0.0456,0.0443,0.0444,0.0445,0.0538,0.054,0.0543,0.0545,0.0641,0.0643,0.0645,0.0609,0,0,0.065,0.0651,0,0,0,0,0,0,0,0,0.0399,0.0403,0.0444,0.0448,0.0453,0.0484,0.0469,0.0501,0.0537,0.0511,0.0543,0.0546,0.059,0.0596,0.0604,0.0614,0.0618,0.065,0.0651,0.0652,0.0653,0,0,0,0,0,0,0,0.0397,0.0401,0.0423,0.0444,0.0449,0.0459,0.0466,0.0476,0.0542,0.0514,0.052,0.0516,0.0594,0.0602,0.0607,0.0619,0.065,0.0652,0.0653,0.0653,0.0693,0.0693,0,0,0,0,0,0,0.0383,0.0399,0.0422,0.0424,0.0426,0.0457,0.0466,0.0475,0.0541,0.0551,0.0514,0.052,0.0598,0.0605,0.0611,0.06,0.0652,0.0654,0.0655,0.0693,0.0693,0.0693,0,0,0,0,0,0,0.0382,0.0385,0.042,0.0408,0.0413,0.0455,0.0465,0.0475,0.053,0.0539,0.0553,0.0565,0.06,0.0608,0.0648,0.0603,0.0654,0.0656,0.0693,0.0693,0.0693,0.056,0,0,0,0,0,0,0.0381,0.0385,0.0409,0.0408,0.0413,0.0441,0.0463,0.0474,0.0519,0.053,0.0586,0.0595,0.0602,0.0645,0.0649,0.0607,0.0657,0.0693,0.0693,0.0693,0.0564,0.0555,0.0547,0,0,0,0,0,0.038,0.0391,0.0411,0.0414,0.0439,0.0441,0.0446,0.0486,0.052,0.0546,0.0578,0.0596,0.0648,0.0646,0.0651,0.0608,0.0693,0.0693,0.0693,0.0568,0.0557,0.0548,0,0,0,0,0,0,0.0389,0.0401,0.0423,0.0439,0.0454,0.0456,0.0499,0.0506,0.0552,0.0578,0.0596,0.0606,0.062,0.065,0.0648,0.0627,0.0672,0.0673,0.0575,0.0566,0.0557,0.0543,0.0659,0,0,0,0,0,0.0399,0.0426,0.0426,0.045,0.0473,0.0495,0.0511,0.0521,0.0544,0.057,0.0576,0.0603,0.0613,0.0624,0.064,0.063,0.066,0.0611,0.0603,0.0595,0.0591,0.0593,0.0583,0.0693,0.0693,0.0693,0,0,0.0406,0.0421,0.0437,0.0456,0.0494,0.0485,0.0516,0.0547,0.0517,0.0569,0.0558,0.0579,0.0611,0.0591,0.0599,0.0615,0.0583,0.0595,0.0587,0.0588,0.0592,0.0581,0.0571,0.0693,0.0693,0.0693,0,0,0.0423,0.0466,0.0493,0.0499,0.0532,0.052,0.0534,0.0532,0.0536,0.0513,0.0538,0.0545,0.0549,0.0543,0.0549,0.0515,0.0543,0.052,0.045,0.0451,0.0441,0.0432,0.0457,0.0451,0.0507,0.0507,0.0506,0,0.0437,0.0454,0.05,0.0512,0.0504,0.0535,0.0522,0.0515,0.0501,0.0482,0.0506,0.0487,0.0518,0.0483,0.0463,0.0489,0.0505,0.0473,0.0435,0.0427,0.0421,0.0448,0.0444,0.05,0.0501,0.0502,0.0502,0,0.0448,0.0466,0.0492,0.0504,0.0499,0.0503,0.0475,0.046,0.0451,0.0414,0.0384,0.0401,0.0395,0.0387,0.0411,0.0367,0.0399,0.0424,0.0447,0.0401,0.0434,0.0432,0.0491,0.0493,0.0495,0.0497,0,0,0.0459,0.0489,0.0507,0.0496,0.0487,0.0476,0.0432,0.0383,0.0351,0.0316,0.0255,0.0253,0.0265,0.0275,0.0293,0.0277,0.0245,0.0318,0.0321,0.0319,0.0255,0.0197,0.0191,0.0249,0.0248,0.0247,0.0295,0,0.046,0.0474,0.0469,0.0442,0.0433,0.0414,0.0361,0.0314,0.0276,0.0217,0.0213,0.0192,0.0221,0.0224,0.0201,0.0234,0.0234,0.0231,0.0322,0.0325,0.0259,0.0184,0.0244,0.0294,0.0293,0.0293,0.0293,0,0.0462,0.0462,0.0459,0.0396,0.0397,0.0371,0.0299,0.0251,0.0182,0.0156,0.0117,0.0114,0.0087,0.0132,0.0142,0.0133,0.0192,0.0217,0.022,0.0211,0.0262,0.0355,0.029,0.029,0.0291,0.0291,0.0291,0,0.0452,0.0437,0.0435,0.0421,0.0367,0.0352,0.0319,0.025,0.0201,0.0143,0.0099,0.0062,0.0059,0.0085,0.0146,0.0142,0.0164,0.0179,0.0188,0.0187,0.0287,0.0296,0.0209,0.0209,0.0209,0.0209,0.0209,0,0.0423,0.0419,0.0448,0.0442,0.0405,0.0368,0.0318,0.0276,0.0202,0.0115,0.0098,0.0022,0.0045,0.0049,0.0113,0.0132,0.0157,0.0156,0.0176,0.0234,0.0236,0.0286,0.0294,0.0211,0.021,0.021,0.0209,0,0.0407,0.0439,0.0426,0.0412,0.0411,0.0397,0.0339,0.0267,0.0233,0.0117,0.0102,0.0007,-0.0025,0.002,0.0065,0.0094,0.0137,0.0168,0.0236,0.0266,0.0167,0.0168,0.0126,0.0124,0.0122,0.0121,0.012,0,0.0393,0.0397,0.0435,0.0432,0.0439,0.0417,0.0363,0.0306,0.0199,0.0084,-0.0013,-0.005,-0.0108,-0.0078,-0.0031,0.0069,0.0101,0.0154,0.0124,0.0124,0.015,0.0154,0.0158,0.0117,0.0116,0.0116,0.0116,0,0.0322,0.0384,0.038,0.0409,0.0391,0.0319,0.0236,0.018,0.0058,0.0037,-0.0105,-0.0115,-0.0171,-0.0153,-0.005,0.0024,0.011,0.0136,0.014,0.0111,0.0113,0.0141,0.0146,0.0109,0.011,0.0111,0.0111,0,0.0281,0.028,0.0321,0.0342,0.0322,0.0222,0.0184,0.0046,-0.0028,-0.015,-0.0193,-0.0212,-0.022,-0.0177,-0.0099,-0.0035,-0.0042,0.0007,0.0018,0.0025,-0.0031,-0.0045,-0.0104,0,0,0,0,0,0.0216,0.0226,0.0224,0.0222,0.021,0.0216,0.007,0.0007,-0.0076,-0.0182,-0.0182,-0.0228,-0.0195,-0.0197,-0.0151,-0.0155,-0.0034,-0.0101,0.003,0.0076,0.0083,0.0026,0,0,0,0,0,0,0.0161,0.0176,0.0201,0.0145,0.0158,0.0078,0.0023,-0.006,-0.0139,-0.0181,-0.0171,-0.0165,-0.014,-0.0172,-0.0115,-0.0109,-0.0016,-0.0083,-0.0082,0.0072,0.0078,0.0084,0.0028,0,0,0,0,0]}]]